This demonstration page uses our WeatherBlox Daily Observations layout. Learn more.

Left ArrowRight Arrow

39.92423, -83.80882

Hourly Observations for August 20, 2019

Temp ( °F °C ) Dew Point ( °F °C ) Humidity (%) Winds ( mph kmh ) Pressure ( in mb ) Visibility ( mi km ) Precip ( " mm )
12:56 am 00:56 Partly Cloudy 72 22.2 69 20.6 91 91 SE 5 7 30.07 1018 10 16.0934 N/A
1:56 am 01:56 Clear 71 21.7 70 21.1 96 96 N N/A 30.06 1018 10 16.0934 N/A
2:56 am 02:56 Clear 69 20.6 69 20.6 100 100 E 5 7 30.06 1018 10 16.0934 N/A
3:56 am 03:56 Clear 69 20.6 69 20.6 100 100 N N/A 30.05 1018 10 16.0934 N/A
4:56 am 04:56 Clear 68 20 68 20 100 100 N N/A 30.05 1018 10 16.0934 N/A
5:56 am 05:56 Clear 67 19.4 67 19.4 100 100 N N/A 30.06 1018 10 16.0934 N/A
6:56 am 06:56 Mostly Cloudy 68 20 68 20 100 100 N N/A 30.06 1018 10 16.0934 N/A
7:56 am 07:56 Sunny with Mist and Fog 69 20.6 69 20.6 100 100 N N/A 30.06 1018 6 9.65604 N/A
8:56 am 08:56 Sunny 75 23.9 72 22.2 90 90 E 6 9 30.04 1017 10 16.0934 N/A
9:56 am 09:56 Sunny 79 26.1 73 22.8 82 82 SE 8 13 30.09 1019 10 16.0934 N/A
10:56 am 10:56 Sunny 83 28.3 74 23.3 74 74 ESE 7 11 30.08 1019 10 16.0934 N/A
11:56 am 11:56 Sunny 86 30 75 23.9 70 70 S 7 11 30.07 1018 10 16.0934 N/A
12:56 pm 12:56 Sunny 89 31.7 73 22.8 59 59 WSW 8 13 30.04 1017 10 16.0934 N/A
1:29 pm 13:29 Mostly Cloudy with Nearby Thunderstorms 90 32 73 23 59 59 S 8 13 29.98 1015 10 16.0934 N/A
1:56 pm 13:56 Mostly Cloudy with Nearby Thunderstorms 86 30 73 22.8 65 65 SSW 6 9 30.02 1017 10 16.0934 0.001 0.001
2:28 pm 14:28 Cloudy with Heavy Thunderstorms 75 24 73 23 94 94 W 15 24 30.03 1017 1.75 2.816345 0.23 5.842
2:32 pm 14:32 Cloudy with Heavy Thunderstorms 75 24 73 23 94 94 NW 7 11 30.02 1016 2 3.21868 0.27 6.858
2:42 pm 14:42 Cloudy with Heavy Thunderstorms 75 24 75 24 100 100 W 17 28 30.04 1017 8 12.87472 0.36 9.144
2:51 pm 14:51 Cloudy with Heavy Thunderstorms 72 22 72 22 100 100 SW 26 43 30.05 1018 2.5 4.02335 0.43 10.922
2:54 pm 14:54 Cloudy with Heavy Thunderstorms 72 22 72 22 100 100 SW 25 41 30.05 1018 1.75 2.816345 0.46 11.684
2:56 pm 14:56 Cloudy with Heavy Thunderstorms 71 21.7 71 21.7 100 100 SSW 18 30 30.07 1018 1.75 2.816345 0.47 11.938
3:03 pm 15:03 Cloudy with Heavy Thunderstorms 70 21 70 21 100 100 SSW 10 17 30.04 1017 1.75 2.816345 0.06 1.524
3:08 pm 15:08 Cloudy with Heavy Thunderstorms 70 21 70 21 100 100 SSW 8 13 30.04 1017 4 6.43736 0.09 2.286
3:56 pm 15:56 Sunny 72 22.2 72 22.2 100 100 WSW 3 6 30.01 1016 10 16.0934 0.29 7.366
4:56 pm 16:56 Sunny 80 26.7 76 24.4 87 87 W 7 11 30 1016 10 16.0934 0.05 1.27
5:56 pm 17:56 Partly Cloudy 77 25 75 23.9 94 94 SW 13 20 30.02 1017 10 16.0934 N/A
6:56 pm 18:56 Sunny 76 24.4 69 20.6 79 79 WSW 12 19 29.98 1015 10 16.0934 N/A
7:56 pm 19:56 Sunny 74 23.3 70 21.1 88 88 SSE 5 7 29.95 1014 10 16.0934 N/A
8:56 pm 20:56 Clear 71 21.7 70 21.1 96 96 S 3 6 29.96 1015 10 16.0934 N/A
9:56 pm 21:56 Clear 70 21.1 70 21.1 100 100 W 5 7 29.96 1015 10 16.0934 N/A
10:56 pm 22:56 Clear 68 20 68 20 100 100 SW 5 7 29.98 1015 10 16.0934 N/A
11:56 pm 23:56 Clear 69 20.6 69 20.6 100 100 SW 7 11 30 1016 10 16.0934 N/A

Powered by AerisWeather